Falfurrias, TX

1:16 AM CST on December 07, 2019 (GMT -0600)
Falfurrias

Weather History for KBKS - October, 2019

Change the Weather History Date:

Monday, October 14, 2019

  Actual Average (WUND) Record (WUND)
Temperature  
Mean Temperature 84 °F -  
Max Temperature 95 °F - - (-1)
Min Temperature 74 °F - - (-1)
Cooling Degree Days 20    
Growing Degree Days 34 (Base 50)    
Moisture  
Dew Point 71 °F    
Average Humidity 71    
Maximum Humidity 93    
Minimum Humidity 39    
Precipitation  
Precipitation 0.00 in - - ()
Sea Level Pressure  
Sea Level Pressure 29.93 in    
Wind  
Wind Speed 3 mph ()    
Max Wind Speed 14 mph    
Max Gust Speed 18 mph    
Visibility 8.2 miles    
Events      
Averages and records for this station are not official NWS values.
T = Trace of Precipitation, MM = Missing Value Source: Averaged Metar Reports

Daily Weather History Graph

Daily Weather History Graph

Search for Another Location

Airport or City:

Astronomy

Oct. 14, 2019 Rise Set
Actual Time 7:31 AM CDT 7:04 PM CDT
Civil Twilight 7:08 AM CDT 7:28 PM CDT
Nautical Twilight 6:41 AM CDT 7:55 PM CDT
Astronomical Twilight 6:14 AM CDT 8:22 PM CDT
Moon 7:56 PM CDT (10/14) 8:06 AM CDT (10/14)
Length of Visible Light 12h 20m
Length of Day
11h 33m
Full, 99% of the Moon is Illuminated
Oct 14
Full
Oct 21
Last Quarter
Oct 27
New
Nov 4
First Quarter
Nov 12
Full

Hourly Weather History & Observations

Time (CDT) Temp. Heat Index Dew Point Humidity Pressure Visibility Wind Dir Wind Speed Gust Speed Precip Events Conditions
12:15 AM 75.2 °F - 70.0 °F 84% 29.95 in 10.0 mi Calm Calm - N/A   Scattered Clouds
12:35 AM 74.7 °F - 69.8 °F 85% 29.96 in 10.0 mi Calm Calm - N/A   Scattered Clouds
12:55 AM 74.7 °F - 70.0 °F 85% 29.95 in 10.0 mi Calm Calm - N/A   Overcast
1:15 AM 74.8 °F - 70.3 °F 86% 29.95 in 10.0 mi Calm Calm - N/A   Overcast
1:35 AM 74.8 °F - 70.3 °F 86% 29.95 in 10.0 mi Calm Calm - N/A   Overcast
1:55 AM 74.8 °F - 70.3 °F 86% 29.95 in 10.0 mi Calm Calm - N/A   Overcast
2:15 AM 75.4 °F - 70.7 °F 85% 29.95 in 10.0 mi Calm Calm - N/A   Overcast
2:35 AM 75.6 °F - 70.7 °F 85% 29.94 in 10.0 mi Calm Calm - N/A   Overcast
2:55 AM 75.6 °F - 70.9 °F 85% 29.94 in 10.0 mi Calm Calm - N/A   Overcast
3:15 AM 75.6 °F - 71.2 °F 86% 29.94 in 10.0 mi Calm Calm - N/A   Overcast
3:35 AM 75.7 °F - 72.5 °F 90% 29.94 in 3.0 mi Calm Calm - N/A   Overcast
3:55 AM 75.2 °F - 72.1 °F 90% 29.93 in 1.2 mi Calm Calm - N/A   Overcast
4:15 AM 75.2 °F - 72.5 °F 91% 29.93 in 0.8 mi Calm Calm - N/A   Overcast
4:35 AM 75.2 °F - 72.5 °F 91% 29.93 in 0.5 mi Calm Calm - N/A   Overcast
4:55 AM 75.4 °F - 73.0 °F 92% 29.93 in 0.5 mi Calm Calm - N/A   Overcast
5:15 AM 75.2 °F - 72.9 °F 92% 29.94 in 1.0 mi Calm Calm - N/A   Overcast
5:35 AM 75.2 °F - 72.9 °F 92% 29.94 in 0.8 mi Calm Calm - N/A   Overcast
5:55 AM 75.2 °F - 72.7 °F 92% 29.94 in 0.8 mi Calm Calm - N/A   Overcast
6:15 AM 75.2 °F - 72.9 °F 92% 29.94 in 0.8 mi Calm Calm - N/A   Overcast
6:35 AM 75.2 °F - 72.9 °F 92% 29.95 in 0.8 mi Calm Calm - N/A   Overcast
6:55 AM 75.2 °F - 72.9 °F 92% 29.96 in 1.5 mi Calm Calm - N/A   Overcast
7:15 AM 75.2 °F - 72.9 °F 92% 29.96 in 1.8 mi Calm Calm - N/A   Overcast
7:35 AM 74.8 °F - 72.7 °F 93% 29.96 in 2.5 mi Calm Calm - N/A   Overcast
7:55 AM 74.8 °F - 72.5 °F 92% 29.96 in 1.5 mi SW 4.6 mph - N/A   Overcast
8:35 AM 75.2 °F - 72.7 °F 92% 29.97 in 5.0 mi SSW 3.5 mph - N/A   Overcast
8:55 AM 75.2 °F - 72.7 °F 92% 29.97 in 10.0 mi SW 3.5 mph - N/A   Overcast
9:15 AM 75.9 °F - 72.1 °F 88% 29.98 in 10.0 mi SW 4.6 mph - N/A   Overcast
9:35 AM 76.6 °F - 71.8 °F 85% 29.98 in 10.0 mi WSW 4.6 mph - N/A   Mostly Cloudy
9:55 AM 77.9 °F - 71.4 °F 80% 29.99 in 10.0 mi SW 5.8 mph - N/A   Scattered Clouds
10:35 AM 80.4 °F 84.1 °F 70.9 °F 73% 29.98 in 10.0 mi West 3.5 mph - N/A   Clear
10:55 AM 83.1 °F 87.1 °F 70.0 °F 64% 29.99 in 10.0 mi SW 4.6 mph - N/A   Clear
11:15 AM 84.2 °F 88.1 °F 69.6 °F 61% 29.98 in 10.0 mi Calm Calm - N/A   Clear
11:35 AM 85.8 °F 89.4 °F 68.4 °F 56% 29.98 in 10.0 mi SSE 4.6 mph - N/A   Clear
11:55 AM 87.8 °F 92.2 °F 69.1 °F 54% 29.97 in 10.0 mi Calm Calm - N/A   Clear
12:15 PM 88.2 °F 92.1 °F 68.7 °F 52% 29.97 in 10.0 mi SSE 3.5 mph - N/A   Clear
12:35 PM 88.7 °F 92.6 °F 68.2 °F 51% 29.96 in 10.0 mi Calm Calm - N/A   Clear
12:55 PM 90.1 °F 93.5 °F 67.5 °F 47% 29.94 in 10.0 mi Calm Calm - N/A   Clear
1:15 PM 91.6 °F 95.2 °F 67.3 °F 45% 29.93 in 10.0 mi SSE 8.1 mph - N/A   Clear
1:35 PM 93.4 °F 97.6 °F 67.6 °F 43% 29.92 in 10.0 mi ESE 3.5 mph - N/A   Clear
1:55 PM 92.8 °F 96.1 °F 66.4 °F 42% 29.91 in 10.0 mi South 6.9 mph - N/A   Clear
2:15 PM 93.6 °F 96.4 °F 66.0 °F 40% 29.89 in 10.0 mi South 6.9 mph 10.4 mph N/A   Clear
2:35 PM 93.7 °F 96.7 °F 66.2 °F 40% 29.88 in 10.0 mi South 8.1 mph - N/A   Clear
2:55 PM 94.5 °F 98.0 °F 66.7 °F 40% 29.88 in 10.0 mi SSE 6.9 mph - N/A   Clear
3:15 PM 93.4 °F 97.0 °F 67.1 °F 42% 29.88 in 10.0 mi SSE 11.5 mph 17.3 mph N/A   Clear
3:35 PM 94.8 °F 98.7 °F 67.3 °F 40% 29.87 in 10.0 mi SE 6.9 mph - N/A   Scattered Clouds
3:55 PM 94.3 °F 98.2 °F 66.9 °F 41% 29.87 in 10.0 mi South 10.4 mph - N/A   Scattered Clouds
4:15 PM 94.3 °F 97.7 °F 66.7 °F 40% 29.86 in 10.0 mi SE 8.1 mph - N/A   Scattered Clouds
4:35 PM 94.5 °F 98.0 °F 66.7 °F 40% 29.86 in 10.0 mi SSE 6.9 mph - N/A   Scattered Clouds
4:55 PM 95.0 °F 99.0 °F 66.9 °F 40% 29.85 in 10.0 mi SE 12.7 mph 17.3 mph N/A   Clear
5:15 PM 94.6 °F 98.3 °F 66.9 °F 40% 29.85 in 10.0 mi SE 6.9 mph - N/A   Clear
5:35 PM 94.5 °F 97.5 °F 66.2 °F 39% 29.86 in 10.0 mi SE 11.5 mph 16.1 mph N/A   Clear
5:55 PM 93.2 °F 96.2 °F 66.4 °F 41% 29.86 in 10.0 mi SE 8.1 mph - N/A   Scattered Clouds
6:15 PM 90.5 °F 98.6 °F 73.0 °F 56% 29.86 in 10.0 mi ESE 13.8 mph 18.4 mph N/A   Scattered Clouds
6:35 PM 89.4 °F 97.8 °F 73.4 °F 59% 29.87 in 10.0 mi ESE 12.7 mph 18.4 mph N/A   Clear
6:55 PM 87.8 °F 95.6 °F 73.4 °F 62% 29.87 in 10.0 mi ESE 11.5 mph 16.1 mph N/A   Clear
7:35 PM 86.0 °F 93.0 °F 72.9 °F 65% 29.88 in 10.0 mi ESE 8.1 mph - N/A   Clear
7:55 PM 84.9 °F 91.4 °F 72.7 °F 67% 29.88 in 10.0 mi ESE 8.1 mph - N/A   Clear
8:15 PM 84.2 °F 90.9 °F 73.4 °F 70% 29.90 in 10.0 mi ESE 9.2 mph - N/A   Clear
8:35 PM 83.3 °F 89.6 °F 73.4 °F 72% 29.91 in 10.0 mi ESE 9.2 mph - N/A   Clear
8:55 PM 82.6 °F 88.8 °F 73.8 °F 75% 29.91 in 10.0 mi ESE 10.4 mph - N/A   Clear
9:15 PM 82.0 °F 88.1 °F 74.3 °F 77% 29.92 in 10.0 mi ESE 10.4 mph - N/A   Clear
9:35 PM 81.7 °F 87.8 °F 74.5 °F 79% 29.92 in 10.0 mi ESE 8.1 mph - N/A   Clear
9:55 PM 81.5 °F 87.6 °F 74.7 °F 80% 29.93 in 10.0 mi ESE 6.9 mph - N/A   Clear
10:15 PM 81.0 °F 86.7 °F 74.8 °F 82% 29.93 in 10.0 mi SE 8.1 mph - N/A   Clear
10:35 PM 81.0 °F 86.9 °F 75.2 °F 83% 29.94 in 10.0 mi SE 9.2 mph - N/A   Clear
10:55 PM 80.6 °F 86.2 °F 75.4 °F 84% 29.94 in 10.0 mi SE 10.4 mph - N/A   Clear
11:15 PM 80.2 °F 85.5 °F 75.4 °F 85% 29.94 in 10.0 mi SE 9.2 mph - N/A   Clear
11:35 PM 79.9 °F - 75.6 °F 87% 29.94 in 10.0 mi SSE 9.2 mph - N/A   Clear
11:55 PM 79.9 °F - 75.7 °F 87% 29.94 in 10.0 mi SE 8.1 mph - N/A   Clear